CW5456 Hansville WA US current weather conditions

sailwx.info

Wind from 241 at 0 knots gusting 2

Air temperature 12.2° C
Dewpoint 9.4° C

Last reported at 2014-Sep-15 08:54 UTC.
Time now 2014-Sep-15 09:30 UTC

Location: N 47°55' W 122°35'.
View on Google Maps.

See reports from other nearby stations

  
Tides and Currents Weather Stations Pressure Air Temp Water Temp Dewpoint Dewpoint Depression Visibility Wind Speed Wind Dir Waves Ship Positions
date/time (UTC)wind fromknots sea level pressurealtimeterstation pressurevisibilityair tempwater tempwave heightnotes
2014-Sep-15 08:54 241 0 gusting 2 12.2
2014-Sep-15 08:39 241 1 gusting 2 12.2
2014-Sep-15 08:19 303 12.8
2014-Sep-15 08:09 303 1 gusting 1 12.8
2014-Sep-15 07:44 303 0 gusting 1 12.8
2014-Sep-15 07:29 303 1 gusting 1 12.8
2014-Sep-15 07:24 303 0 gusting 2 12.8
2014-Sep-15 06:54 303 12.8
2014-Sep-15 06:44 303 1 gusting 2 12.8
2014-Sep-15 06:24 303 12.8
2014-Sep-15 06:09 303 1 gusting 2 13.3
2014-Sep-15 05:59 303 2 gusting 2 13.3
2014-Sep-15 05:54 303 2 gusting 2 13.3
2014-Sep-15 05:39 341 0 gusting 1 13.9
2014-Sep-15 05:34 342 0 gusting 0 13.9
2014-Sep-15 05:29 342 14.4
2014-Sep-15 05:24 341 14.4
2014-Sep-15 05:19 342 14.4
2014-Sep-15 04:59 342 15.0
2014-Sep-15 04:39 344 15.6
2014-Sep-15 04:34 344 1 gusting 3 15.6
2014-Sep-15 04:24 346 3 gusting 3 15.6
2014-Sep-15 04:19 349 0 gusting 3 15.6
2014-Sep-15 04:14 336 0 gusting 2 15.6
2014-Sep-15 04:09 333 0 gusting 5 15.6
2014-Sep-15 03:59 330 0 gusting 5 16.1
2014-Sep-15 03:44 340 1 gusting 5 16.1
2014-Sep-15 03:34 360 2 gusting 5 16.1
2014-Sep-15 03:09 340 3 gusting 6 16.1
2014-Sep-15 02:59 033 1 gusting 5 16.1
2014-Sep-15 02:49 029 0 gusting 2 16.7
2014-Sep-15 02:34 348 16.7
2014-Sep-15 02:29 336 0 gusting 7 16.7
2014-Sep-15 02:24 355 3 gusting 6 17.2
2014-Sep-15 02:19 355 1 gusting 6 17.2
2014-Sep-15 02:14 005 1 gusting 6 17.2
2014-Sep-15 02:09 329 0 gusting 5 17.2
2014-Sep-15 01:54 360 0 gusting 6 17.8
2014-Sep-15 01:49 344 3 gusting 7 17.8
2014-Sep-15 01:44 304 0 gusting 7 17.8
2014-Sep-15 01:19 333 0 gusting 7 17.8
2014-Sep-15 01:09 341 1 gusting 7 17.8
2014-Sep-15 01:04 349 5 gusting 7 17.8
2014-Sep-15 00:54 015 2 gusting 6 17.8
2014-Sep-15 00:49 338 2 gusting 7 17.8
2014-Sep-15 00:44 311 2 gusting 7 18.3
2014-Sep-15 00:19 344 2 gusting 6 18.3
2014-Sep-15 00:04 350 5 gusting 7 18.3
2014-Sep-14 23:59 348 6 gusting 7 18.3
2014-Sep-14 23:54 355 2 gusting 7 18.3
2014-Sep-14 23:44 309 2 gusting 9 17.8
2014-Sep-14 23:19 350 6 gusting 6 17.8
2014-Sep-14 23:14 337 3 gusting 6 18.3
2014-Sep-14 22:39 336 2 gusting 7 17.2
2014-Sep-14 22:29 319 3 gusting 6 16.7
2014-Sep-14 22:24 344 3 gusting 8 16.7
2014-Sep-14 22:14 348 6 gusting 9 16.1
2014-Sep-14 22:09 355 6 gusting 9 16.1
2014-Sep-14 22:04 360 7 gusting 8 16.1
2014-Sep-14 21:59 346 3 gusting 8 16.1
2014-Sep-14 21:54 333 3 gusting 7 16.1
2014-Sep-14 21:49 342 5 gusting 6 16.1
2014-Sep-14 21:29 320 3 gusting 7 16.1
2014-Sep-14 21:24 338 6 gusting 7 16.1
2014-Sep-14 21:09 014 1 gusting 8 16.7
2014-Sep-14 21:04 334 6 gusting 8 16.7
2014-Sep-14 20:59 331 8 gusting 8 16.7
2014-Sep-14 20:54 342 5 gusting 8 17.2
2014-Sep-14 20:49 355 5 gusting 8 16.7
2014-Sep-14 20:44 355 2 gusting 8 16.7
2014-Sep-14 20:24 009 1 gusting 6 16.1
2014-Sep-14 20:19 005 1 gusting 10 16.1
2014-Sep-14 20:09 329 6 gusting 6 16.1
2014-Sep-14 19:39 009 2 gusting 6 16.1
2014-Sep-14 19:34 348 3 gusting 6 15.6
2014-Sep-14 19:19 346 15.6
2014-Sep-14 18:59 329 2 gusting 5 15.0
2014-Sep-14 18:44 345 2 gusting 3 15.0
2014-Sep-14 18:24 348 14.4
2014-Sep-14 17:44 338 2 gusting 5 14.4
2014-Sep-14 17:29 347 1 gusting 5 14.4
2014-Sep-14 17:19 350 1 gusting 6 14.4
2014-Sep-14 17:09 344 5 gusting 6 13.9
2014-Sep-14 17:04 355 2 gusting 5 13.9
2014-Sep-14 16:59 350 1 gusting 2 13.9
2014-Sep-14 16:49 348 0 gusting 3 13.9
2014-Sep-14 16:44 360 2 gusting 3 13.9
2014-Sep-14 16:34 360 1 gusting 5 13.9
2014-Sep-14 16:29 360 1 gusting 6 13.9
2014-Sep-14 16:14 355 2 gusting 5 13.9
2014-Sep-14 15:49 355 3 gusting 5 13.3
2014-Sep-14 15:39 346 2 gusting 3 13.3
2014-Sep-14 15:24 346 2 gusting 5 12.8
2014-Sep-14 15:14 346 3 gusting 3 12.8
2014-Sep-14 15:09 346 3 gusting 3 12.8
2014-Sep-14 15:04 346 2 gusting 3 12.8
2014-Sep-14 14:49 346 1 gusting 3 12.2
2014-Sep-14 14:44 346 2 gusting 5 11.7
2014-Sep-14 14:39 346 0 gusting 5 11.7
2014-Sep-14 14:24 312 11.1
2014-Sep-14 14:14 312 11.1
2014-Sep-14 14:09 309 0 gusting 2 11.1
2014-Sep-14 14:04 309 0 gusting 2 11.1
2014-Sep-14 13:59 309 11.1
2014-Sep-14 13:54 309 11.1
2014-Sep-14 13:39 309 11.1
2014-Sep-14 13:34 309 11.1
2014-Sep-14 13:19 309 2 gusting 2 11.1
2014-Sep-14 13:14 309 1 gusting 2 11.1
2014-Sep-14 13:04 309 11.1
2014-Sep-14 12:54 309 1 gusting 1 11.1
2014-Sep-14 12:39 309 11.1
2014-Sep-14 12:29 309 11.1
2014-Sep-14 12:24 309 11.1
2014-Sep-14 12:14 309 11.1
2014-Sep-14 11:34 309 11.7
2014-Sep-14 11:24 309 11.7
2014-Sep-14 11:09 309 11.7
2014-Sep-14 11:04 309 11.1
2014-Sep-14 10:44 252 11.1
2014-Sep-14 10:29 252 11.1
2014-Sep-14 09:59 252 1 gusting 2 11.1
2014-Sep-14 09:44 252 1 gusting 3 11.1
2014-Sep-14 09:39 252 2 gusting 3 11.1
2014-Sep-14 09:24 252 1 gusting 2 11.7
2014-Sep-14 09:14 314 1 gusting 1 12.2
2014-Sep-14 09:04 315 1 gusting 1 12.8
2014-Sep-14 08:59 315 12.8
2014-Sep-14 08:54 315 12.8
2014-Sep-14 08:39 315 12.8
2014-Sep-14 08:14 315 12.2
2014-Sep-14 08:09 315 12.2
2014-Sep-14 07:34 306 1 gusting 2 12.2
2014-Sep-14 07:29 306 1 gusting 2 12.2
2014-Sep-14 07:24 306 0 gusting 1 12.2
2014-Sep-14 06:59 326 0 gusting 2 12.8
2014-Sep-14 06:49 326 0 gusting 1 12.8
2014-Sep-14 06:44 327 0 gusting 1 13.3
2014-Sep-14 06:09 331 3 gusting 3 13.3
2014-Sep-14 06:04 321 2 gusting 2 13.3
2014-Sep-14 05:59 299 1 gusting 1 13.3
2014-Sep-14 05:49 299 13.3
2014-Sep-14 05:44 299 0 gusting 1 13.3
2014-Sep-14 05:34 299 13.9
2014-Sep-14 05:24 299 13.9
2014-Sep-14 05:19 299 13.9
2014-Sep-14 05:14 299 13.9
2014-Sep-14 04:54 326 1 gusting 2 13.9
2014-Sep-14 04:34 327 13.9
2014-Sep-14 04:29 327 13.9
2014-Sep-14 04:09 327 14.4
2014-Sep-14 03:54 327 14.4
2014-Sep-14 03:39 326 15.0
2014-Sep-14 03:34 327 15.0
2014-Sep-14 03:14 330 0 gusting 5 15.0
2014-Sep-14 03:09 316 15.0
2014-Sep-14 02:59 350 0 gusting 3 15.6
2014-Sep-14 02:54 331 0 gusting 3 15.6
2014-Sep-14 02:49 329 16.1
2014-Sep-14 02:44 330 1 gusting 5 16.1
2014-Sep-14 02:24 327 3 gusting 5 16.1
2014-Sep-14 01:54 344 16.7
2014-Sep-14 01:39 009 2 gusting 6 16.7
2014-Sep-14 01:34 350 5 gusting 6 16.1
2014-Sep-14 01:09 355 6 gusting 7 17.2
2014-Sep-14 00:59 005 1 gusting 10 17.2
2014-Sep-14 00:49 244 16.7
2014-Sep-14 00:39 313 0 gusting 3 16.7
2014-Sep-14 00:19 341 10 gusting 10 16.7
2014-Sep-13 23:49 340 0 gusting 6 16.7
2014-Sep-13 23:24 014 0 gusting 6 16.7
2014-Sep-13 23:14 315 1 gusting 6 16.7
2014-Sep-13 22:59 348 3 gusting 7 16.7
2014-Sep-13 22:54 319 2 gusting 6 17.2
2014-Sep-13 22:39 333 17.2
2014-Sep-13 22:14 175 0 gusting 3 17.8
2014-Sep-13 21:59 299 16.7
2014-Sep-13 21:54 342 16.7
2014-Sep-13 21:44 005 5 gusting 9 16.7
2014-Sep-13 21:29 331 5 gusting 10 16.7
2014-Sep-13 21:19 349 2 gusting 6 16.1
2014-Sep-13 20:54 020 3 gusting 6 16.1
2014-Sep-13 20:44 360 1 gusting 6 16.7
2014-Sep-13 20:39 322 5 gusting 6 16.7
2014-Sep-13 20:24 326 3 gusting 7 17.2
2014-Sep-13 20:19 336 3 gusting 7 16.7
2014-Sep-13 20:14 341 6 gusting 7 16.7
2014-Sep-13 20:04 360 5 gusting 6 16.7
2014-Sep-13 19:59 340 3 gusting 7 16.7
2014-Sep-13 19:54 327 3 gusting 8 16.7
2014-Sep-13 19:39 355 2 gusting 7 16.1
2014-Sep-13 19:34 355 3 gusting 7 16.1
2014-Sep-13 19:29 338 6 gusting 6 16.1
2014-Sep-13 19:04 351 2 gusting 6 16.1
2014-Sep-13 18:34 360 3 gusting 6 15.0
2014-Sep-13 18:29 335 1 gusting 6 15.0
2014-Sep-13 18:24 346 0 gusting 7 14.4
2014-Sep-13 18:14 323 6 gusting 8 14.4
2014-Sep-13 18:04 360 7 gusting 7 13.9
2014-Sep-13 17:49 344 2 gusting 6 13.9
2014-Sep-13 17:39 344 2 gusting 6 13.9
2014-Sep-13 17:34 346 5 gusting 6 13.9
2014-Sep-13 17:09 341 6 gusting 7 13.9
2014-Sep-13 16:49 348 6 gusting 7 13.3
2014-Sep-13 16:39 355 5 gusting 6 13.3
2014-Sep-13 16:24 005 3 gusting 5 13.3
2014-Sep-13 16:14 360 5 gusting 7 12.8
2014-Sep-13 15:54 360 6 gusting 10 12.8
2014-Sep-13 15:44 343 7 gusting 10 12.8
2014-Sep-13 15:19 330 7 gusting 9 12.2
2014-Sep-13 15:14 346 7 gusting 7 12.2
2014-Sep-13 15:09 349 5 gusting 6 11.7
2014-Sep-13 14:59 013 5 gusting 5 11.1
2014-Sep-13 14:54 010 2 gusting 3 11.1
2014-Sep-13 14:29 337 0 gusting 1 10.0
2014-Sep-13 14:24 337 10.0
2014-Sep-13 14:19 337 10.0
2014-Sep-13 14:09 337 10.6
2014-Sep-13 13:39 330 10.6
2014-Sep-13 13:34 340 2 gusting 6 10.6
2014-Sep-13 13:04 203 10.0
2014-Sep-13 12:59 203 10.0
2014-Sep-13 12:54 204 0 gusting 2 10.0
2014-Sep-13 12:44 204 10.0
2014-Sep-13 12:39 204 10.0
2014-Sep-13 12:34 204 10.0
2014-Sep-13 12:24 203 10.0
2014-Sep-13 12:19 204 10.0
2014-Sep-13 12:14 204 10.0
2014-Sep-13 12:09 203 10.0
2014-Sep-13 11:54 203 10.0
2014-Sep-13 11:49 203 1 gusting 1 10.6
2014-Sep-13 11:19 204 1 gusting 2 10.0
2014-Sep-13 11:14 203 2 gusting 2 10.0
2014-Sep-13 11:04 204 0 gusting 1 10.0
2014-Sep-13 10:59 204 10.0
2014-Sep-13 10:54 203 0 gusting 2 10.6
2014-Sep-13 10:49 203 1 gusting 1 10.6
2014-Sep-13 10:44 203 0 gusting 2 10.6
2014-Sep-13 10:39 204 0 gusting 2 10.6
2014-Sep-13 09:59 063 2 gusting 2 11.1
2014-Sep-13 09:54 062 0 gusting 1 11.1
2014-Sep-13 09:34 062 11.1
2014-Sep-13 09:29 062 11.1
2014-Sep-13 09:04 062 0 gusting 1 11.7